This is the latest recevied weather packets stored in our database for station/object EA2KR-10. If no packets are shown the sender has not sent any weather packets the latest 10 day(s).
| Time | Temp. | Humidity | Pressure | Rain* | Wind** | Luminosity | Snow |
|---|---|---|---|---|---|---|---|
| 1787915001 | 31.11° C | 28% | 1030.9 hPa | - | - | - | - |
| 1787913201 | 30° C | 29% | 1031.2 hPa | - | - | - | - |
| 1787911401 | 28.33° C | 30% | 1031.2 hPa | - | - | - | - |
| 1787909601 | 26.67° C | 32% | 1031 hPa | - | - | - | - |
| 1787907801 | 25.56° C | 33% | 1031 hPa | - | - | - | - |
| 1787906000 | 23.89° C | 34% | 1030.9 hPa | - | - | - | - |
| 1787904200 | 22.22° C | 35% | 1030.9 hPa | - | - | - | - |
| 1787902400 | 21.11° C | 35% | 1030.9 hPa | - | - | - | - |
| 1787900600 | 20° C | 35% | 1030.6 hPa | - | - | - | - |
| 1787898804 | 19.44° C | 34% | 1030.4 hPa | - | - | - | - |
| 1787897004 | 19.44° C | 34% | 1029.9 hPa | - | - | - | - |
| 1787895204 | 19.44° C | 34% | 1029.6 hPa | - | - | - | - |
| 1787893404 | 20° C | 33% | 1029.2 hPa | - | - | - | - |
| 1787891603 | 20.56° C | 33% | 1029.3 hPa | - | - | - | - |
| 1787889803 | 21.11° C | 32% | 1029.1 hPa | - | - | - | - |
| 1787888004 | 21.11° C | 32% | 1029 hPa | - | - | - | - |
| 1787886204 | 21.67° C | 31% | 1028.8 hPa | - | - | - | - |
| 1787884402 | 22.22° C | 31% | 1028.9 hPa | - | - | - | - |
| 1787882602 | 22.78° C | 31% | 1028.4 hPa | - | - | - | - |
| 1787880801 | 22.78° C | 31% | 1028.3 hPa | - | - | - | - |
| 1787879001 | 23.33° C | 31% | 1028.3 hPa | - | - | - | - |
| 1787877201 | 23.89° C | 30% | 1028.4 hPa | - | - | - | - |
| 1787875401 | 24.44° C | 30% | 1028.1 hPa | - | - | - | - |
| 1787873601 | 24.44° C | 29% | 1027.6 hPa | - | - | - | - |
| 1787871801 | 25° C | 30% | 1027.5 hPa | - | - | - | - |
* Rain since midnight (hover to see other rain measurements)
** Current wind speed in m/s (hover to see current wind gust speed)